Time,TemperatureF,DewpointF,PressureIn,WindDirection,WindDirectionDegrees,WindSpeedMPH,WindSpeedGustMPH,Humidity,HourlyPrecipIn,Conditions,Clouds,dailyrainin,SoftwareType,DateUTC
2014-04-17 00:01:00,49.6,29.2,30.12,SSW,202,5.4,7.6,45,0.00,,,0.00,VWS V14.01,2014-04-17 05:01:00,
2014-04-17 00:06:00,49.6,29.2,30.12,SW,225,7.6,10.1,45,0.00,,,0.00,VWS V14.01,2014-04-17 05:06:00,
2014-04-17 00:11:00,49.8,29.4,30.12,South,180,7.2,9.6,45,0.00,,,0.00,VWS V14.01,2014-04-17 05:11:00,
2014-04-17 00:16:00,49.5,29.0,30.12,SSW,202,7.6,7.6,45,0.00,,,0.00,VWS V14.01,2014-04-17 05:16:00,
2014-04-17 00:21:00,49.5,29.0,30.12,SW,225,8.3,8.3,45,0.00,,,0.00,VWS V14.01,2014-04-17 05:21:00,
2014-04-17 00:26:00,49.1,28.7,30.12,SSW,202,5.8,6.3,45,0.00,,,0.00,VWS V14.01,2014-04-17 05:26:00,
2014-04-17 00:31:00,48.7,28.4,30.12,South,180,5.4,8.1,45,0.00,,,0.00,VWS V14.01,2014-04-17 05:31:00,
2014-04-17 00:36:00,48.7,28.4,30.12,SW,225,5.8,5.8,45,0.00,,,0.00,VWS V14.01,2014-04-17 05:36:00,
2014-04-17 00:41:00,48.7,28.4,30.12,South,180,8.1,8.1,45,0.00,,,0.00,VWS V14.01,2014-04-17 05:41:00,
2014-04-17 00:46:00,48.6,28.2,30.12,South,180,6.3,6.3,45,0.00,,,0.00,VWS V14.01,2014-04-17 05:46:00,
2014-04-17 00:51:00,48.7,28.4,30.12,South,180,5.4,6.3,45,0.00,,,0.00,VWS V14.01,2014-04-17 05:51:00,
2014-04-17 00:56:00,48.4,28.0,30.12,South,180,5.8,6.3,45,0.00,,,0.00,VWS V14.01,2014-04-17 05:56:00,
2014-04-17 01:01:00,48.0,28.2,30.12,South,180,6.7,6.7,46,0.00,,,0.00,VWS V14.01,2014-04-17 06:01:00,
2014-04-17 01:06:00,47.8,28.1,30.12,South,180,5.8,5.8,46,0.00,,,0.00,VWS V14.01,2014-04-17 06:06:00,
2014-04-17 01:11:00,47.5,27.8,30.12,South,180,5.8,5.8,46,0.00,,,0.00,VWS V14.01,2014-04-17 06:11:00,
2014-04-17 01:16:00,47.1,27.4,30.12,South,180,6.3,7.2,46,0.00,,,0.00,VWS V14.01,2014-04-17 06:16:00,
2014-04-17 01:21:00,47.3,27.6,30.12,South,180,4.0,4.0,46,0.00,,,0.00,VWS V14.01,2014-04-17 06:21:00,
2014-04-17 01:26:00,47.3,27.6,30.12,South,180,4.9,4.9,46,0.00,,,0.00,VWS V14.01,2014-04-17 06:26:00,
2014-04-17 01:31:00,47.1,27.4,30.15,South,180,3.1,3.6,46,0.00,,,0.00,VWS V14.01,2014-04-17 06:31:00,
2014-04-17 01:36:00,46.8,27.1,30.15,South,180,3.1,3.6,46,0.00,,,0.00,VWS V14.01,2014-04-17 06:36:00,
2014-04-17 01:41:00,46.6,27.5,30.15,South,180,5.4,5.4,47,0.00,,,0.00,VWS V14.01,2014-04-17 06:41:00,
2014-04-17 01:46:00,46.6,27.5,30.12,SSE,158,4.0,4.9,47,0.00,,,0.00,VWS V14.01,2014-04-17 06:46:00,
2014-04-17 01:51:00,46.6,27.5,30.12,South,180,2.7,3.6,47,0.00,,,0.00,VWS V14.01,2014-04-17 06:51:00,
2014-04-17 01:56:00,46.6,27.5,30.12,South,180,4.9,4.9,47,0.00,,,0.00,VWS V14.01,2014-04-17 06:56:00,
2014-04-17 02:01:00,46.4,27.3,30.12,South,180,4.5,4.5,47,0.00,,,0.00,VWS V14.01,2014-04-17 07:01:00,
2014-04-17 02:06:00,46.2,27.1,30.12,South,180,3.1,3.1,47,0.00,,,0.00,VWS V14.01,2014-04-17 07:06:00,
2014-04-17 02:11:00,46.0,27.0,30.12,SSE,158,2.2,3.1,47,0.00,,,0.00,VWS V14.01,2014-04-17 07:11:00,
2014-04-17 02:16:00,46.0,27.0,30.12,SSE,158,0.0,0.0,47,0.00,,,0.00,VWS V14.01,2014-04-17 07:16:00,
2014-04-17 02:21:00,45.5,27.0,30.12,SE,135,0.0,0.0,48,0.00,,,0.00,VWS V14.01,2014-04-17 07:21:00,
2014-04-17 02:26:00,45.1,26.6,30.12,SE,135,2.2,2.7,48,0.00,,,0.00,VWS V14.01,2014-04-17 07:26:00,
2014-04-17 02:31:00,44.6,26.6,30.12,SE,135,0.0,0.0,49,0.00,,,0.00,VWS V14.01,2014-04-17 07:31:00,
2014-04-17 02:36:00,44.4,26.5,30.12,SE,135,0.0,0.0,49,0.00,,,0.00,VWS V14.01,2014-04-17 07:36:00,
2014-04-17 02:41:00,43.5,26.6,30.12,SE,135,0.0,0.0,51,0.00,,,0.00,VWS V14.01,2014-04-17 07:41:00,
2014-04-17 02:46:00,43.2,26.7,30.15,SE,135,0.0,0.0,52,0.00,,,0.00,VWS V14.01,2014-04-17 07:46:00,
2014-04-17 02:51:00,44.1,27.1,30.15,SE,135,0.0,0.0,51,0.00,,,0.00,VWS V14.01,2014-04-17 07:51:00,
2014-04-17 02:56:00,43.3,26.4,30.15,SE,135,0.0,0.0,51,0.00,,,0.00,VWS V14.01,2014-04-17 07:56:00,
2014-04-17 03:01:00,42.8,26.4,30.15,SE,135,0.0,0.0,52,0.00,,,0.00,VWS V14.01,2014-04-17 08:01:00,
2014-04-17 03:06:00,42.4,26.5,30.15,SE,135,0.0,0.0,53,0.00,,,0.00,VWS V14.01,2014-04-17 08:06:00,
2014-04-17 03:11:00,42.3,26.4,30.15,SE,135,0.0,0.0,53,0.00,,,0.00,VWS V14.01,2014-04-17 08:11:00,
2014-04-17 03:16:00,41.5,26.6,30.15,SE,135,0.0,0.0,55,0.00,,,0.00,VWS V14.01,2014-04-17 08:16:00,
2014-04-17 03:21:00,41.7,26.3,30.15,SE,135,0.0,0.0,54,0.00,,,0.00,VWS V14.01,2014-04-17 08:21:00,
2014-04-17 03:26:00,41.7,26.8,30.15,SE,135,0.0,0.0,55,0.00,,,0.00,VWS V14.01,2014-04-17 08:26:00,
2014-04-17 03:31:00,40.6,26.2,30.12,SE,135,0.0,0.0,56,0.00,,,0.00,VWS V14.01,2014-04-17 08:31:00,
2014-04-17 03:36:00,40.5,26.4,30.12,SE,135,0.0,0.0,57,0.00,,,0.00,VWS V14.01,2014-04-17 08:36:00,
2014-04-17 03:41:00,40.5,26.4,30.12,SE,135,0.0,0.0,57,0.00,,,0.00,VWS V14.01,2014-04-17 08:41:00,
2014-04-17 03:46:00,40.3,26.3,30.15,SE,135,0.0,0.0,57,0.00,,,0.00,VWS V14.01,2014-04-17 08:46:00,
2014-04-17 03:51:00,39.9,26.4,30.15,SE,135,0.0,0.0,58,0.00,,,0.00,VWS V14.01,2014-04-17 08:51:00,
2014-04-17 03:56:00,40.5,26.9,30.15,SE,135,0.0,0.0,58,0.00,,,0.00,VWS V14.01,2014-04-17 08:56:00,
2014-04-17 04:01:00,40.8,27.2,30.15,SE,135,0.0,0.0,58,0.00,,,0.00,VWS V14.01,2014-04-17 09:01:00,
2014-04-17 04:06:00,40.8,27.2,30.15,SE,135,0.0,0.0,58,0.00,,,0.00,VWS V14.01,2014-04-17 09:06:00,
2014-04-17 04:11:00,39.9,26.8,30.15,SE,135,0.0,0.0,59,0.00,,,0.00,VWS V14.01,2014-04-17 09:11:00,
2014-04-17 04:16:00,39.9,26.8,30.15,SE,135,0.0,0.0,59,0.00,,,0.00,VWS V14.01,2014-04-17 09:16:00,
2014-04-17 04:21:00,39.4,26.3,30.15,SE,135,0.0,0.0,59,0.00,,,0.00,VWS V14.01,2014-04-17 09:21:00,
2014-04-17 04:26:00,39.4,26.7,30.15,SE,135,0.0,0.0,60,0.00,,,0.00,VWS V14.01,2014-04-17 09:26:00,
2014-04-17 04:31:00,38.5,26.6,30.15,SE,135,0.0,0.0,62,0.00,,,0.00,VWS V14.01,2014-04-17 09:31:00,
2014-04-17 04:36:00,38.5,26.6,30.15,SE,135,0.0,0.0,62,0.00,,,0.00,VWS V14.01,2014-04-17 09:36:00,
2014-04-17 04:41:00,38.3,26.8,30.15,SE,135,0.0,0.0,63,0.00,,,0.00,VWS V14.01,2014-04-17 09:41:00,
2014-04-17 04:46:00,38.1,27.0,30.15,SE,135,0.0,0.0,64,0.00,,,0.00,VWS V14.01,2014-04-17 09:46:00,
2014-04-17 04:51:00,38.1,27.4,30.15,SE,135,0.0,0.0,65,0.00,,,0.00,VWS V14.01,2014-04-17 09:51:00,
2014-04-17 04:56:00,38.8,28.1,30.15,SE,135,0.0,0.0,65,0.00,,,0.00,VWS V14.01,2014-04-17 09:56:00,
2014-04-17 05:01:00,39.0,28.3,30.15,SE,135,0.0,0.0,65,0.00,,,0.00,VWS V14.01,2014-04-17 10:01:00,
2014-04-17 05:06:00,38.8,27.7,30.15,SE,135,0.0,0.0,64,0.00,,,0.00,VWS V14.01,2014-04-17 10:06:00,
2014-04-17 05:11:00,38.8,27.7,30.15,SE,135,0.0,0.0,64,0.00,,,0.00,VWS V14.01,2014-04-17 10:11:00,
2014-04-17 05:16:00,39.2,27.7,30.15,SE,135,0.0,0.0,63,0.00,,,0.00,VWS V14.01,2014-04-17 10:16:00,
2014-04-17 05:21:00,38.8,27.3,30.15,SE,135,0.0,0.0,63,0.00,,,0.00,VWS V14.01,2014-04-17 10:21:00,
2014-04-17 05:26:00,38.8,28.1,30.15,SE,135,0.0,0.0,65,0.00,,,0.00,VWS V14.01,2014-04-17 10:26:00,
2014-04-17 05:31:00,39.7,28.6,30.15,SE,135,0.0,0.0,64,0.00,,,0.00,VWS V14.01,2014-04-17 10:31:00,
2014-04-17 05:36:00,39.4,27.9,30.15,SE,135,0.0,0.0,63,0.00,,,0.00,VWS V14.01,2014-04-17 10:36:00,
2014-04-17 05:40:00,39.0,27.5,30.15,SE,135,0.0,0.0,63,0.00,,,0.00,VWS V14.01,2014-04-17 10:40:00,
2014-04-17 05:45:00,38.1,27.8,30.15,SSE,158,0.0,0.0,66,0.00,,,0.00,VWS V14.01,2014-04-17 10:45:00,
2014-04-17 05:50:00,37.9,28.3,30.15,SSE,158,0.0,0.0,68,0.00,,,0.00,VWS V14.01,2014-04-17 10:50:00,
2014-04-17 05:55:00,38.1,29.2,30.15,SE,135,0.0,0.0,70,0.00,,,0.00,VWS V14.01,2014-04-17 10:55:00,
2014-04-17 06:00:00,38.5,29.6,30.15,SE,135,0.0,0.0,70,0.00,,,0.00,VWS V14.01,2014-04-17 11:00:00,
2014-04-17 06:05:00,38.3,28.7,30.18,SE,135,0.0,0.0,68,0.00,,,0.00,VWS V14.01,2014-04-17 11:05:00,
2014-04-17 06:10:00,38.7,29.4,30.18,SE,135,0.0,0.0,69,0.00,,,0.00,VWS V14.01,2014-04-17 11:10:00,
2014-04-17 06:15:00,38.8,29.5,30.18,SE,135,0.0,0.0,69,0.00,,,0.00,VWS V14.01,2014-04-17 11:15:00,
2014-04-17 06:20:00,39.0,29.4,30.18,SE,135,0.0,0.0,68,0.00,,,0.00,VWS V14.01,2014-04-17 11:20:00,
2014-04-17 06:25:00,38.7,29.0,30.18,SE,135,0.0,0.0,68,0.00,,,0.00,VWS V14.01,2014-04-17 11:25:00,
2014-04-17 06:30:00,38.7,29.4,30.18,SE,135,0.0,0.0,69,0.00,,,0.00,VWS V14.01,2014-04-17 11:30:00,
2014-04-17 06:35:00,38.8,29.9,30.18,SE,135,0.0,0.0,70,0.00,,,0.00,VWS V14.01,2014-04-17 11:35:00,
2014-04-17 06:40:00,38.7,29.7,30.18,SE,135,0.0,0.0,70,0.00,,,0.00,VWS V14.01,2014-04-17 11:40:00,
2014-04-17 06:45:00,38.5,29.9,30.18,SE,135,0.0,0.0,71,0.00,,,0.00,VWS V14.01,2014-04-17 11:45:00,
2014-04-17 06:50:00,38.7,30.4,30.21,SE,135,0.0,0.0,72,0.00,,,0.00,VWS V14.01,2014-04-17 11:50:00,
2014-04-17 06:55:00,38.8,30.3,30.21,SE,135,0.0,0.0,71,0.00,,,0.00,VWS V14.01,2014-04-17 11:55:00,
2014-04-17 07:00:00,39.0,30.4,30.21,SE,135,0.0,0.0,71,0.00,,,0.00,VWS V14.01,2014-04-17 12:00:00,
2014-04-17 07:05:00,39.2,30.2,30.21,SE,135,0.0,0.0,70,0.00,,,0.00,VWS V14.01,2014-04-17 12:05:00,
2014-04-17 07:10:00,39.9,30.9,30.21,SE,135,0.0,0.0,70,0.00,,,0.00,VWS V14.01,2014-04-17 12:10:00,
2014-04-17 07:15:00,39.7,30.4,30.21,SE,135,0.0,0.0,69,0.00,,,0.00,VWS V14.01,2014-04-17 12:15:00,
2014-04-17 07:20:00,40.6,30.5,30.21,SE,135,0.0,0.0,67,0.00,,,0.00,VWS V14.01,2014-04-17 12:20:00,
2014-04-17 07:25:00,41.2,30.7,30.21,SE,135,0.0,0.0,66,0.00,,,0.00,VWS V14.01,2014-04-17 12:25:00,
2014-04-17 07:30:00,41.5,30.7,30.21,ESE,112,0.0,0.0,65,0.00,,,0.00,VWS V14.01,2014-04-17 12:30:00,
2014-04-17 07:35:00,42.3,31.0,30.21,SE,135,0.0,0.0,64,0.00,,,0.00,VWS V14.01,2014-04-17 12:35:00,
2014-04-17 07:40:00,43.2,30.6,30.21,SE,135,0.0,0.0,61,0.00,,,0.00,VWS V14.01,2014-04-17 12:40:00,
2014-04-17 07:45:00,43.5,30.6,30.21,SSE,158,0.0,0.0,60,0.00,,,0.00,VWS V14.01,2014-04-17 12:45:00,
2014-04-17 07:50:00,44.2,31.2,30.21,SSE,158,0.0,0.0,60,0.00,,,0.00,VWS V14.01,2014-04-17 12:50:00,
2014-04-17 07:55:00,44.8,31.3,30.21,SE,135,0.0,0.0,59,0.00,,,0.00,VWS V14.01,2014-04-17 12:55:00,
2014-04-17 08:00:00,45.5,31.6,30.21,South,180,4.9,5.4,58,0.00,,,0.00,VWS V14.01,2014-04-17 13:00:00,
2014-04-17 08:05:00,46.6,31.3,30.21,South,180,4.5,4.5,55,0.00,,,0.00,VWS V14.01,2014-04-17 13:05:00,
2014-04-17 08:10:00,47.3,32.4,30.21,SE,135,2.2,2.7,56,0.00,,,0.00,VWS V14.01,2014-04-17 13:10:00,
2014-04-17 08:15:00,48.0,32.6,30.21,South,180,2.7,2.7,55,0.00,,,0.00,VWS V14.01,2014-04-17 13:15:00,
2014-04-17 08:20:00,48.7,32.8,30.24,South,180,3.6,3.6,54,0.00,,,0.00,VWS V14.01,2014-04-17 13:20:00,
2014-04-17 08:25:00,49.6,33.7,30.24,SSE,158,5.4,5.4,54,0.00,,,0.00,VWS V14.01,2014-04-17 13:25:00,
2014-04-17 08:30:00,49.8,33.4,30.24,South,180,6.3,6.3,53,0.00,,,0.00,VWS V14.01,2014-04-17 13:30:00,
2014-04-17 08:35:00,49.8,33.4,30.24,South,180,4.0,5.4,53,0.00,,,0.00,VWS V14.01,2014-04-17 13:35:00,
2014-04-17 08:40:00,50.4,33.9,30.24,South,180,3.1,3.6,53,0.00,,,0.00,VWS V14.01,2014-04-17 13:40:00,
2014-04-17 08:45:00,51.6,34.6,30.24,South,180,5.8,5.8,52,0.00,,,0.00,VWS V14.01,2014-04-17 13:45:00,
2014-04-17 08:50:00,52.2,34.1,30.24,SSW,202,4.9,5.4,50,0.00,,,0.00,VWS V14.01,2014-04-17 13:50:00,
2014-04-17 08:55:00,52.9,34.8,30.24,South,180,3.6,4.0,50,0.00,,,0.00,VWS V14.01,2014-04-17 13:55:00,
2014-04-17 09:00:00,53.1,33.9,30.24,SE,135,4.9,6.3,48,0.00,,,0.00,VWS V14.01,2014-04-17 14:00:00,
2014-04-17 09:05:00,54.1,35.4,30.24,South,180,3.6,3.6,49,0.00,,,0.00,VWS V14.01,2014-04-17 14:05:00,
2014-04-17 09:10:00,54.5,34.2,30.24,SW,225,3.6,4.9,46,0.00,,,0.00,VWS V14.01,2014-04-17 14:10:00,
2014-04-17 09:15:00,54.1,33.3,30.24,South,180,5.4,9.6,45,0.00,,,0.00,VWS V14.01,2014-04-17 14:15:00,
2014-04-17 09:20:00,55.6,35.2,30.24,West,270,5.4,5.8,46,0.00,,,0.00,VWS V14.01,2014-04-17 14:20:00,
2014-04-17 09:25:00,55.6,34.6,30.24,South,180,3.1,4.0,45,0.00,,,0.00,VWS V14.01,2014-04-17 14:25:00,
2014-04-17 09:30:00,55.9,34.9,30.24,SSW,202,6.3,8.1,45,0.00,,,0.00,VWS V14.01,2014-04-17 14:30:00,
2014-04-17 09:35:00,55.9,34.9,30.24,SW,225,4.0,5.8,45,0.00,,,0.00,VWS V14.01,2014-04-17 14:35:00,
2014-04-17 09:40:00,56.8,36.3,30.24,SSW,202,4.9,5.4,46,0.00,,,0.00,VWS V14.01,2014-04-17 14:40:00,
2014-04-17 09:45:00,57.6,36.4,30.24,SW,225,4.9,4.9,45,0.00,,,0.00,VWS V14.01,2014-04-17 14:45:00,
2014-04-17 09:50:00,57.9,36.2,30.27,West,270,3.1,4.0,44,0.00,,,0.00,VWS V14.01,2014-04-17 14:50:00,
2014-04-17 09:55:00,58.8,37.0,30.27,South,180,4.0,4.9,44,0.00,,,0.00,VWS V14.01,2014-04-17 14:55:00,
2014-04-17 10:00:00,59.4,37.5,30.27,NE,45,0.0,0.0,44,0.00,,,0.00,VWS V14.01,2014-04-17 15:00:00,
2014-04-17 10:05:00,60.6,38.0,30.24,SE,135,3.6,3.6,43,0.00,,,0.00,VWS V14.01,2014-04-17 15:05:00,
2014-04-17 10:10:00,60.8,37.6,30.24,West,270,3.6,5.8,42,0.00,,,0.00,VWS V14.01,2014-04-17 15:10:00,
2014-04-17 10:15:00,60.4,37.3,30.24,West,270,3.1,3.1,42,0.00,,,0.00,VWS V14.01,2014-04-17 15:15:00,
2014-04-17 10:20:00,60.3,37.1,30.24,SW,225,6.3,6.3,42,0.00,,,0.00,VWS V14.01,2014-04-17 15:20:00,
2014-04-17 10:25:00,60.8,37.0,30.24,West,270,4.9,7.2,41,0.00,,,0.00,VWS V14.01,2014-04-17 15:25:00,
2014-04-17 10:30:00,61.0,37.1,30.24,NW,315,6.3,7.6,41,0.00,,,0.00,VWS V14.01,2014-04-17 15:30:00,
2014-04-17 10:35:00,61.9,38.0,30.27,West,270,0.0,0.0,41,0.00,,,0.00,VWS V14.01,2014-04-17 15:35:00,
2014-04-17 10:40:00,61.9,38.0,30.27,West,270,2.2,2.2,41,0.00,,,0.00,VWS V14.01,2014-04-17 15:40:00,
2014-04-17 10:45:00,61.3,36.8,30.27,West,270,2.2,2.2,40,0.00,,,0.00,VWS V14.01,2014-04-17 15:45:00,
2014-04-17 10:50:00,61.2,37.3,30.27,WSW,248,4.0,4.0,41,0.00,,,0.00,VWS V14.01,2014-04-17 15:50:00,
2014-04-17 10:55:00,62.2,38.3,30.27,WSW,248,4.0,4.0,41,0.00,,,0.00,VWS V14.01,2014-04-17 15:55:00,
2014-04-17 11:00:00,61.3,36.8,30.27,West,270,3.6,3.6,40,0.00,,,0.00,VWS V14.01,2014-04-17 16:00:00,
2014-04-17 11:05:00,61.5,37.0,30.27,West,270,3.6,3.6,40,0.00,,,0.00,VWS V14.01,2014-04-17 16:05:00,
2014-04-17 11:10:00,62.8,38.1,30.27,West,270,3.6,3.6,40,0.00,,,0.00,VWS V14.01,2014-04-17 16:10:00,
2014-04-17 11:15:00,63.5,38.8,30.27,West,270,4.9,5.4,40,0.00,,,0.00,VWS V14.01,2014-04-17 16:15:00,
2014-04-17 11:20:00,63.1,38.5,30.27,NNW,338,5.8,8.7,40,0.00,,,0.00,VWS V14.01,2014-04-17 16:20:00,
2014-04-17 11:25:00,63.0,38.9,30.27,NW,315,0.0,0.0,41,0.00,,,0.00,VWS V14.01,2014-04-17 16:25:00,
2014-04-17 11:30:00,62.8,38.1,30.27,South,180,5.4,5.8,40,0.00,,,0.00,VWS V14.01,2014-04-17 16:30:00,
2014-04-17 11:35:00,63.5,38.8,30.27,NW,315,6.7,6.7,40,0.00,,,0.00,VWS V14.01,2014-04-17 16:35:00,
2014-04-17 11:40:00,62.6,38.0,30.27,West,270,3.1,3.1,40,0.00,,,0.00,VWS V14.01,2014-04-17 16:40:00,
2014-04-17 11:45:00,63.3,38.6,30.27,NW,315,4.0,4.0,40,0.00,,,0.00,VWS V14.01,2014-04-17 16:45:00,
2014-04-17 11:50:00,63.1,38.5,30.27,NW,315,4.9,4.9,40,0.00,,,0.00,VWS V14.01,2014-04-17 16:50:00,
2014-04-17 11:55:00,63.9,39.1,30.27,ESE,112,4.0,4.0,40,0.00,,,0.00,VWS V14.01,2014-04-17 16:55:00,
2014-04-17 12:00:00,64.4,38.9,30.27,West,270,4.0,4.9,39,0.00,,,0.00,VWS V14.01,2014-04-17 17:00:00,
2014-04-17 12:05:00,64.6,39.1,30.27,West,270,2.7,3.6,39,0.00,,,0.00,VWS V14.01,2014-04-17 17:05:00,
2014-04-17 12:10:00,64.6,39.1,30.27,West,270,2.2,2.7,39,0.00,,,0.00,VWS V14.01,2014-04-17 17:10:00,
2014-04-17 12:15:00,66.4,40.7,30.27,WSW,248,4.0,4.0,39,0.00,,,0.00,VWS V14.01,2014-04-17 17:15:00,
2014-04-17 12:20:00,65.1,38.9,30.24,South,180,3.6,4.0,38,0.00,,,0.00,VWS V14.01,2014-04-17 17:20:00,
2014-04-17 12:25:00,64.9,38.8,30.24,NW,315,4.0,5.8,38,0.00,,,0.00,VWS V14.01,2014-04-17 17:25:00,
2014-04-17 12:30:00,64.6,38.4,30.24,SSE,158,0.0,0.0,38,0.00,,,0.00,VWS V14.01,2014-04-17 17:30:00,
2014-04-17 12:35:00,63.1,37.8,30.24,ENE,68,3.6,4.0,39,0.00,,,0.00,VWS V14.01,2014-04-17 17:35:00,
2014-04-17 12:40:00,65.7,40.0,30.24,North,0,3.6,3.6,39,0.00,,,0.00,VWS V14.01,2014-04-17 17:40:00,
2014-04-17 12:45:00,64.6,38.4,30.24,North,0,4.9,4.9,38,0.00,,,0.00,VWS V14.01,2014-04-17 17:45:00,
2014-04-17 12:50:00,64.6,39.1,30.24,NE,45,0.0,0.0,39,0.00,,,0.00,VWS V14.01,2014-04-17 17:50:00,
2014-04-17 12:55:00,64.2,38.8,30.24,West,270,0.0,0.0,39,0.00,,,0.00,VWS V14.01,2014-04-17 17:55:00,
2014-04-17 13:00:00,64.2,38.8,30.24,West,270,2.7,2.7,39,0.00,,,0.00,VWS V14.01,2014-04-17 18:00:00,
2014-04-17 13:05:00,64.6,39.1,30.24,WNW,292,2.2,2.2,39,0.00,,,0.00,VWS V14.01,2014-04-17 18:05:00,
2014-04-17 13:10:00,65.7,40.0,30.24,NE,45,6.7,6.7,39,0.00,,,0.00,VWS V14.01,2014-04-17 18:10:00,
2014-04-17 13:15:00,64.4,38.9,30.24,North,0,7.6,8.1,39,0.00,,,0.00,VWS V14.01,2014-04-17 18:15:00,
2014-04-17 13:20:00,63.1,37.8,30.24,SW,225,0.0,0.0,39,0.00,,,0.00,VWS V14.01,2014-04-17 18:20:00,
2014-04-17 13:25:00,63.5,38.1,30.24,NW,315,0.0,0.0,39,0.00,,,0.00,VWS V14.01,2014-04-17 18:25:00,
2014-04-17 13:30:00,64.0,38.6,30.24,East,90,0.0,0.0,39,0.00,,,0.00,VWS V14.01,2014-04-17 18:30:00,
2014-04-17 13:35:00,63.9,38.5,30.24,SW,225,3.6,3.6,39,0.00,,,0.00,VWS V14.01,2014-04-17 18:35:00,
2014-04-17 13:40:00,65.5,39.9,30.24,NNE,22,4.9,4.9,39,0.00,,,0.00,VWS V14.01,2014-04-17 18:40:00,
2014-04-17 13:45:00,64.6,39.1,30.24,NW,315,4.9,6.3,39,0.00,,,0.00,VWS V14.01,2014-04-17 18:45:00,
2014-04-17 13:50:00,64.9,39.4,30.24,North,0,0.0,0.0,39,0.00,,,0.00,VWS V14.01,2014-04-17 18:50:00,
2014-04-17 13:55:00,65.3,39.7,30.24,North,0,2.7,2.7,39,0.00,,,0.00,VWS V14.01,2014-04-17 18:55:00,
2014-04-17 14:00:00,64.4,38.3,30.24,SE,135,2.2,3.1,38,0.00,,,0.00,VWS V14.01,2014-04-17 19:00:00,
2014-04-17 14:05:00,63.5,38.1,30.24,SE,135,2.2,2.2,39,0.00,,,0.00,VWS V14.01,2014-04-17 19:05:00,
2014-04-17 14:10:00,63.3,38.0,30.24,South,180,4.5,6.3,39,0.00,,,0.00,VWS V14.01,2014-04-17 19:10:00,
2014-04-17 14:15:00,64.8,39.2,30.24,SW,225,3.1,4.0,39,0.00,,,0.00,VWS V14.01,2014-04-17 19:15:00,
2014-04-17 14:20:00,65.1,39.6,30.21,North,0,5.8,5.8,39,0.00,,,0.00,VWS V14.01,2014-04-17 19:20:00,
2014-04-17 14:25:00,65.3,39.1,30.21,NNW,338,6.3,7.6,38,0.00,,,0.00,VWS V14.01,2014-04-17 19:25:00,
2014-04-17 14:30:00,66.0,40.4,30.21,WNW,292,0.0,0.0,39,0.00,,,0.00,VWS V14.01,2014-04-17 19:30:00,
2014-04-17 14:35:00,67.6,41.8,30.21,West,270,3.1,3.1,39,0.00,,,0.00,VWS V14.01,2014-04-17 19:35:00,
2014-04-17 14:40:00,67.3,40.1,30.21,West,270,2.7,4.5,37,0.00,,,0.00,VWS V14.01,2014-04-17 19:40:00,
2014-04-17 14:45:00,68.0,41.5,30.21,NNE,22,2.7,2.7,38,0.00,,,0.00,VWS V14.01,2014-04-17 19:45:00,
2014-04-17 14:50:00,66.9,38.4,30.24,East,90,0.0,2.7,35,0.00,,,0.00,VWS V14.01,2014-04-17 19:50:00,
2014-04-17 14:55:00,67.8,39.2,30.24,East,90,4.0,4.0,35,0.00,,,0.00,VWS V14.01,2014-04-17 19:55:00,
2014-04-17 15:00:00,67.8,39.2,30.24,West,270,2.7,2.7,35,0.00,,,0.00,VWS V14.01,2014-04-17 20:00:00,
2014-04-17 15:05:00,68.7,39.2,30.24,NNE,22,4.0,4.9,34,0.00,,,0.00,VWS V14.01,2014-04-17 20:05:00,
2014-04-17 15:10:00,69.4,39.9,30.24,North,0,3.6,3.6,34,0.00,,,0.00,VWS V14.01,2014-04-17 20:10:00,
2014-04-17 15:15:00,68.0,37.8,30.24,North,0,5.8,5.8,33,0.00,,,0.00,VWS V14.01,2014-04-17 20:15:00,
2014-04-17 15:20:00,66.7,36.8,30.24,North,0,0.0,3.6,33,0.00,,,0.00,VWS V14.01,2014-04-17 20:20:00,
2014-04-17 15:25:00,66.6,37.3,30.24,NE,45,3.1,5.4,34,0.00,,,0.00,VWS V14.01,2014-04-17 20:25:00,
2014-04-17 15:30:00,67.6,37.5,30.24,North,0,0.0,0.0,33,0.00,,,0.00,VWS V14.01,2014-04-17 20:30:00,
2014-04-17 15:35:00,67.5,37.4,30.24,SW,225,3.1,4.9,33,0.00,,,0.00,VWS V14.01,2014-04-17 20:35:00,
2014-04-17 15:40:00,67.8,37.7,30.24,NE,45,0.0,0.0,33,0.00,,,0.00,VWS V14.01,2014-04-17 20:40:00,
2014-04-17 15:45:00,66.9,37.7,30.24,NE,45,5.4,5.4,34,0.00,,,0.00,VWS V14.01,2014-04-17 20:45:00,
2014-04-17 15:50:00,65.8,39.5,30.21,NE,45,6.7,6.7,38,0.00,,,0.00,VWS V14.01,2014-04-17 20:50:00,
2014-04-17 15:55:00,65.1,39.6,30.21,North,0,5.8,5.8,39,0.00,,,0.00,VWS V14.01,2014-04-17 20:55:00,
2014-04-17 16:00:00,65.7,39.4,30.21,NE,45,5.4,5.4,38,0.00,,,0.00,VWS V14.01,2014-04-17 21:00:00,
2014-04-17 16:05:00,66.0,39.7,30.21,NE,45,0.0,0.0,38,0.00,,,0.00,VWS V14.01,2014-04-17 21:05:00,
2014-04-17 16:10:00,66.7,39.7,30.21,NNW,338,2.7,4.0,37,0.00,,,0.00,VWS V14.01,2014-04-17 21:10:00,
2014-04-17 16:15:00,67.5,41.0,30.21,North,0,6.3,7.6,38,0.00,,,0.00,VWS V14.01,2014-04-17 21:15:00,
2014-04-17 16:20:00,66.0,40.4,30.21,North,0,7.6,7.6,39,0.00,,,0.00,VWS V14.01,2014-04-17 21:20:00,
2014-04-17 16:25:00,65.5,39.2,30.21,East,90,4.5,4.9,38,0.00,,,0.00,VWS V14.01,2014-04-17 21:25:00,
2014-04-17 16:30:00,66.4,39.3,30.21,North,0,3.1,4.0,37,0.00,,,0.00,VWS V14.01,2014-04-17 21:30:00,
2014-04-17 16:35:00,66.4,40.0,30.21,NE,45,8.3,8.3,38,0.00,,,0.00,VWS V14.01,2014-04-17 21:35:00,
2014-04-17 16:40:00,66.0,40.4,30.21,North,0,5.4,8.7,39,0.00,,,0.00,VWS V14.01,2014-04-17 21:40:00,
2014-04-17 16:45:00,66.2,40.5,30.21,NE,45,3.6,8.3,39,0.00,,,0.00,VWS V14.01,2014-04-17 21:45:00,
2014-04-17 16:50:00,66.0,40.4,30.21,North,0,8.7,10.5,39,0.00,,,0.00,VWS V14.01,2014-04-17 21:50:00,
2014-04-17 16:55:00,65.8,40.2,30.21,NE,45,5.8,5.8,39,0.00,,,0.00,VWS V14.01,2014-04-17 21:55:00,
2014-04-17 17:00:00,65.1,39.6,30.21,NNW,338,4.5,5.8,39,0.00,,,0.00,VWS V14.01,2014-04-17 22:00:00,
2014-04-17 17:05:00,64.9,39.4,30.21,NW,315,5.4,6.3,39,0.00,,,0.00,VWS V14.01,2014-04-17 22:05:00,
2014-04-17 17:10:00,64.2,38.8,30.21,North,0,7.6,7.6,39,0.00,,,0.00,VWS V14.01,2014-04-17 22:10:00,
2014-04-17 17:14:00,64.0,39.2,30.21,NE,45,7.2,7.2,40,0.00,,,0.00,VWS V14.01,2014-04-17 22:14:00,
2014-04-17 17:19:00,63.1,38.5,30.21,North,0,5.4,8.7,40,0.00,,,0.00,VWS V14.01,2014-04-17 22:19:00,
2014-04-17 17:24:00,62.8,38.1,30.21,North,0,3.6,7.6,40,0.00,,,0.00,VWS V14.01,2014-04-17 22:24:00,
2014-04-17 17:29:00,62.2,38.3,30.21,NW,315,4.0,7.6,41,0.00,,,0.00,VWS V14.01,2014-04-17 22:29:00,
2014-04-17 17:34:00,62.4,38.4,30.21,NNE,22,4.0,5.4,41,0.00,,,0.00,VWS V14.01,2014-04-17 22:34:00,
2014-04-17 17:39:00,62.2,38.3,30.21,North,0,5.8,5.8,41,0.00,,,0.00,VWS V14.01,2014-04-17 22:39:00,
2014-04-17 17:44:00,62.1,38.1,30.21,NNW,338,5.4,8.7,41,0.00,,,0.00,VWS V14.01,2014-04-17 22:44:00,
2014-04-17 17:49:00,61.9,38.0,30.24,North,0,8.1,10.5,41,0.00,,,0.00,VWS V14.01,2014-04-17 22:49:00,
2014-04-17 17:54:00,61.9,38.0,30.24,North,0,6.7,6.7,41,0.00,,,0.00,VWS V14.01,2014-04-17 22:54:00,
2014-04-17 17:59:00,61.9,38.0,30.24,NNW,338,5.8,8.7,41,0.00,,,0.00,VWS V14.01,2014-04-17 22:59:00,
2014-04-17 18:04:00,61.7,37.8,30.24,NNE,22,5.4,6.3,41,0.00,,,0.00,VWS V14.01,2014-04-17 23:04:00,
2014-04-17 18:09:00,61.9,38.6,30.24,North,0,6.3,7.6,42,0.00,,,0.00,VWS V14.01,2014-04-17 23:09:00,
2014-04-17 18:14:00,61.7,37.8,30.24,North,0,5.8,7.6,41,0.00,,,0.00,VWS V14.01,2014-04-17 23:14:00,
2014-04-17 18:19:00,61.5,38.2,30.24,NNW,338,9.2,9.2,42,0.00,,,0.00,VWS V14.01,2014-04-17 23:19:00,
2014-04-17 18:24:00,60.8,38.2,30.24,NE,45,4.0,6.3,43,0.00,,,0.00,VWS V14.01,2014-04-17 23:24:00,
2014-04-17 18:29:00,60.6,38.6,30.24,North,0,6.3,8.3,44,0.00,,,0.00,VWS V14.01,2014-04-17 23:29:00,
2014-04-17 18:34:00,60.4,38.4,30.24,North,0,4.0,7.2,44,0.00,,,0.00,VWS V14.01,2014-04-17 23:34:00,
2014-04-17 18:39:00,60.1,38.1,30.24,NE,45,5.4,8.3,44,0.00,,,0.00,VWS V14.01,2014-04-17 23:39:00,
2014-04-17 18:44:00,59.9,38.0,30.24,NNW,338,8.1,8.7,44,0.00,,,0.00,VWS V14.01,2014-04-17 23:44:00,
2014-04-17 18:49:00,59.4,38.0,30.24,North,0,6.3,8.1,45,0.00,,,0.00,VWS V14.01,2014-04-17 23:49:00,
2014-04-17 18:54:00,59.2,37.9,30.24,North,0,5.4,8.3,45,0.00,,,0.00,VWS V14.01,2014-04-17 23:54:00,
2014-04-17 18:59:00,59.0,37.7,30.24,North,0,5.4,9.6,45,0.00,,,0.00,VWS V14.01,2014-04-17 23:59:00,
2014-04-17 19:04:00,58.8,37.5,30.24,North,0,8.1,8.7,45,0.00,,,0.00,VWS V14.01,2014-04-18 00:04:00,
2014-04-17 19:09:00,58.6,37.9,30.24,North,0,2.7,5.8,46,0.00,,,0.00,VWS V14.01,2014-04-18 00:09:00,
2014-04-17 19:14:00,58.5,37.8,30.24,NE,45,12.3,12.3,46,0.00,,,0.00,VWS V14.01,2014-04-18 00:14:00,
2014-04-17 19:19:00,58.5,37.8,30.24,North,0,3.1,6.3,46,0.00,,,0.00,VWS V14.01,2014-04-18 00:19:00,
2014-04-17 19:24:00,58.5,37.8,30.24,North,0,2.7,4.0,46,0.00,,,0.00,VWS V14.01,2014-04-18 00:24:00,
2014-04-17 19:29:00,58.3,37.6,30.24,NE,45,0.0,8.7,46,0.00,,,0.00,VWS V14.01,2014-04-18 00:29:00,
2014-04-17 19:34:00,58.1,37.5,30.24,NW,315,0.0,0.0,46,0.00,,,0.00,VWS V14.01,2014-04-18 00:34:00,
2014-04-17 19:39:00,58.1,37.5,30.24,ENE,68,6.3,6.7,46,0.00,,,0.00,VWS V14.01,2014-04-18 00:39:00,
2014-04-17 19:41:00,58.1,37.5,30.24,NNE,22,4.0,5.4,46,0.00,,,0.00,VWS V14.01,2014-04-18 00:41:00,
2014-04-17 19:46:00,58.1,37.5,30.24,North,0,3.1,4.5,46,0.00,,,0.00,VWS V14.01,2014-04-18 00:46:00,
2014-04-17 19:51:00,57.9,37.3,30.24,NE,45,3.1,3.1,46,0.00,,,0.00,VWS V14.01,2014-04-18 00:51:00,
2014-04-17 19:56:00,57.9,37.3,30.24,North,0,2.7,2.7,46,0.00,,,0.00,VWS V14.01,2014-04-18 00:56:00,
2014-04-17 20:01:00,57.9,37.3,30.24,NE,45,6.3,6.3,46,0.00,,,0.00,VWS V14.01,2014-04-18 01:01:00,
2014-04-17 20:06:00,57.7,37.1,30.27,NE,45,4.0,4.0,46,0.00,,,0.00,VWS V14.01,2014-04-18 01:06:00,
2014-04-17 20:07:00,57.7,37.1,30.27,North,0,3.1,3.1,46,0.00,,,0.00,VWS V14.01,2014-04-18 01:07:00,
2014-04-17 20:12:00,57.6,37.0,30.27,NE,45,7.6,7.6,46,0.00,,,0.00,VWS V14.01,2014-04-18 01:12:00,
2014-04-17 20:17:00,57.4,36.8,30.27,NNE,22,3.1,4.0,46,0.00,,,0.00,VWS V14.01,2014-04-18 01:17:00,
2014-04-17 20:22:00,57.2,37.2,30.27,North,0,4.0,4.0,47,0.00,,,0.00,VWS V14.01,2014-04-18 01:22:00,
2014-04-17 20:27:00,57.0,37.0,30.27,ENE,68,3.6,3.6,47,0.00,,,0.00,VWS V14.01,2014-04-18 01:27:00,